Zurück zum Katalog

DELTA 1 DEB

AktivSSO
NORAD 10830·DEBRIS·🇺🇸 United States

Gestartet Jul 29, 1976 von Vandenberg Space Force Base

Loading…

Nächste Überflüge (nächste 24 Stunden)

TLE

AktuellSource: Space-Track

Epoche: Sep 14, 2026, 11:56 UTC

1 10830U 76077CA  26257.49761968 -.00000021  00000-0  18028-3 0  9997
2 10830 101.9254 357.2023 0088557  38.6806  22.5368 12.28447572247586

Verfolge DELTA 1 DEB in Echtzeit mit AllMySat

Download on the App Store